Location: College Park
(38.9810°N, 76.9370°W)
Time: 05:03:26
(UTC-05:00)

N. Korean satellite - Pass Details

Date: 10 February 2018
Orbit: 459 x 514 km, 97.2° (Epoch: 19 February)

Event Time Altitude Azimuth Distance (km) Brightness Sun altitude
Rises 06:17:20 0° 22° (NNE) 2,533 10.4 -9.8°
Reaches altitude 10° 06:19:32 10° 32° (NNE) 1,660 9.6 -9.4°
Maximum altitude 06:22:47 32° 97° (E) 849 8.7 -8.8°
Drops below altitude 10° 06:26:03 10° 163° (SSE) 1,676 9.7 -8.2°
Sets 06:28:17 0° 173° (S) 2,563 10.5 -7.7°
